Weather in Luzhny

Russia / Tula Oblast     53°20′24″N   37°02′08″E
temp.,
°C
wind,
m/s
gust,
m/s
humid.,
%
clouds,
%
prec.,
mm/h
press.,
hPa
HPBL,
m
18 october, mon
mon1800:00+6w4877100 0.0 1016376
03:00+7wsw4862100 0.0 1014315
06:00+6wsw51072100 0.0 1014497
09:00+6wsw61175100 0.0 1014620
12:00+7wsw6107299 0.0 1014741
15:00+8w687199 0.2 10131129
18:00+6wnw5879100 0.3 1014772
21:00+4w3784100 0.3 1015218
19 october, tue
tue1900:00+3w4986100 0.0 1015272
03:00+2wnw37915 0.0 1016193
06:000wnw37945 0.0 1017174
09:00+2nw478838 0.0 1017338
12:00+3nw5775100 0.0 1018924
15:00+3wnw6773100 0.0 1018767
18:00+2wnw5981100 0.1 1019646
21:00+1wnw61191100 0.1 1020669
20 october, wed
wed2000:00+2nw6967100 0.0 10211092
03:000nw5108925 0.1 1023492
06:00−2nw489536 0.0 1024258
09:00−1nw348289 0.0 1025272
12:00+3w335688 0.0 1025726
15:00+4wsw4544100 0.0 1023856
18:00+2s3858100 0.0 1022168
21:00+4ssw51256100 0.0 1020512
21 october, thu
thu2100:00+5ssw81565100 0.2 1017624
03:00+5ssw81885100 2.1 1014690
06:00+6sw81689100 0.9 1012546
09:00+8sw8178199 0.9 1011560
12:00+11sw81873100 0.0 1010648
15:00+12sw91869100 0.0 1008718
18:00+12sw81775100 0.0 1008615
21:00+11sw91877100 0.0 1006641
22 october, fri
fri2200:00+10sw91977100 0.0 1005654
03:00+10sw8177699 0.0 1004623
06:00+9sw71579100 0.0 1005497
09:00+9wsw714805 0.0 1006621
12:00+12wsw812677 0.0 1007925
15:00+13wsw71161100 0.0 10081021
18:00+10wsw511735 0.0 1010334
21:00+8sw3108451 0.0 1011197